Location: Sternwarte_Laufen
(47.9344°N, 12.9346°E)
Time: 23:34:06
(UTC+02:00)

ISS - Visible Passes

Search period start: 23 September 2017 00:00
Search period end: 03 October 2017 00:00
Orbit: 401 x 407 km, 51.6° (Epoch: 24 September)

Date Brightness Start Highest point End Pass type
(mag) Time Alt. Az. Time Alt. Az. Time Alt. Az.
25 Sep -1.1 21:19:08 10° SW 21:19:31 13° SW 21:19:31 13° SW visible
26 Sep -2.9 20:27:09 10° SSW 20:29:53 31° SSE 20:29:53 31° SSE visible
27 Sep -2.2 19:35:31 10° S 19:37:56 19° SE 19:40:04 12° E visible
27 Sep -2.3 21:10:47 10° WSW 21:12:44 33° WSW 21:12:44 33° WSW visible
28 Sep -3.8 20:18:30 10° SW 20:21:44 61° SSE 20:22:45 38° E visible
28 Sep -0.5 21:55:08 10° W 21:55:24 12° W 21:55:24 12° W visible
29 Sep -3.1 19:26:24 10° SW 19:29:27 37° SE 19:32:31 10° ENE visible
29 Sep -2.8 21:02:37 10° W 21:05:17 47° WNW 21:05:17 47° WNW visible
30 Sep -3.8 20:10:09 10° WSW 20:13:26 77° NNW 20:15:02 27° ENE visible
30 Sep -0.6 21:47:02 10° WNW 21:47:42 15° WNW 21:47:42 15° WNW visible
01 Oct -3.8 19:17:47 10° WSW 19:21:02 72° SSE 19:24:19 10° ENE visible
01 Oct -2.8 20:54:30 10° W 20:57:23 43° NNW 20:57:23 43° NNW visible
02 Oct -3.2 20:01:57 10° W 20:05:10 52° NNW 20:07:01 22° NE visible
02 Oct -0.7 21:38:49 10° WNW 21:39:39 16° WNW 21:39:39 16° WNW visible
